Overview Statistics Trail Chart Weather Telemetry Raw packets
 

This is the latest recevied weather packets stored in our database for station/object K0CVS. If no packets are shown the sender has not sent any weather packets the latest 10 day(s).

<< 3 4 5 6 7 8 9 >>
Time Temp. Humidity Pressure Rain* Wind** Luminosity Snow
1788541664 34.44° C 47% 1015.1 hPa 0 mm - 620 W/m² -
1788541359 33.89° C 50% 1015.2 hPa 0 mm - 612 W/m² -
1788541058 33.33° C 51% 1015.1 hPa 0 mm - 605 W/m² -
1788540752 33.89° C 50% 1015.1 hPa 0 mm - 596 W/m² -
1788540446 33.89° C 51% 1015.3 hPa 0 mm - 587 W/m² -
1788540142 33.33° C 52% 1015.4 hPa 0 mm - 585 W/m² -
1788539838 32.78° C 52% 1015.2 hPa 0 mm - 573 W/m² -
1788539533 33.33° C 50% 1015.2 hPa 0 mm - 564 W/m² -
1788539232 33.33° C 52% 1015.2 hPa 0 mm - 553 W/m² -
1788538927 33.33° C 52% 1015.2 hPa 0 mm - 542 W/m² -
1788538623 33.33° C 52% 1015.2 hPa 0 mm - 529 W/m² -
1788538317 32.78° C 53% 1015.1 hPa 0 mm - 519 W/m² -
1788538014 32.78° C 53% 1015.1 hPa 0 mm - 506 W/m² -
1788537709 32.78° C 53% 1015.5 hPa 0 mm - 496 W/m² -
1788537404 32.22° C 54% 1015.3 hPa 0 mm - 486 W/m² -
1788537103 32.22° C 54% 1015.4 hPa 0 mm - 472 W/m² -
1788536802 32.22° C 55% 1015.3 hPa 0 mm - 462 W/m² -
1788536502 32.22° C 55% 1015.4 hPa 0 mm - 448 W/m² -
1788536198 31.67° C 56% 1015.2 hPa 0 mm - 436 W/m² -
1788535898 31.11° C 58% 1015.3 hPa 0 mm - 428 W/m² -
1788535594 30.56° C 59% 1015.2 hPa 0 mm - 204 W/m² -
1788535290 30.56° C 59% 1015.2 hPa 0 mm - 377 W/m² -
1788534985 30.56° C 60% 1015.4 hPa 0 mm - 46 W/m² -
1788534683 30° C 60% 1015.3 hPa 0 mm - 45 W/m² -
1788534380 30° C 61% 1015.4 hPa 0 mm - 44 W/m² -

* Rain latest hour (hover to see other rain measurements)
** Current wind speed in m/s (hover to see current wind gust speed)